Home > Weather > El Paso > Past weeks

Flag for U.S.A. Weather for the Past 2 Weeks in El Paso, Texas, U.S.A.

Now
38 °F

Passing clouds.


Feels Like: 33 °F
Forecast: 42 / 79 °F
Wind: 6 mph from Northeast

Location: El Paso International Airport

Current Time: Feb 13, 2016 at 6:08:09 AM

Latest Report: Feb 13, 2016 at 4:51 AM


Visibility: 10 mi

Pressure: 30.14 "Hg (26.17 "Hg at 1142m altitude)

Humidity: 39%

Dew point: 15 °F

Location of El PasoLocation

Historic Weather in El Paso — Graph

°F

El Paso Temperature Yesterday

Maximum temperature yesterday: 74 °F (at 2:51 PM)
Minimum temperature yesterday: 34 °F (at 5:51 AM)
Average temperature yesterday: 55 °F

High & Low Weather Summary for the Past Weeks

 TemperatureHumidityPressure
High74 °F (Feb 12, 2:51 PM)86% (Feb 1, 10:51 AM)30.48 "Hg (Feb 1, 10:51 AM)
Low21 °F (Feb 6, 6:51 AM)9% (Feb 12, 1:51 PM)29.49 "Hg (Feb 1, 7:51 AM)
Average47 °F29%30.11 "Hg
* Reported Jan 29 4:51 AM — Feb 13 4:51 AM, El Paso, Weather by CustomWeather, © 2016

Note: Actual official high and low records may vary slightly from our data, if they occured in-between our weather recording intervals... More about our weather records

Advertising

El Paso Weather History for the Previous 24 Hours

 ConditionsComfort  
Time TempWeatherWind HumidityBarometerVisibility
4:51 AM
Sat, Feb 13
38 °FPassing clouds.6 mph39%30.14 "Hg10 mi
3:51 AM41 °FPassing clouds.5 mph36%30.13 "Hg10 mi
2:51 AM42 °FPassing clouds.5 mph36%30.12 "Hg10 mi
1:51 AM43 °FPassing clouds.No wind31%30.12 "Hg10 mi
12:51 AM48 °FPassing clouds.3 mph27%30.13 "Hg10 mi
11:51 PM
Fri, Feb 12
47 °FPassing clouds.3 mph26%30.15 "Hg10 mi
10:51 PM50 °FPassing clouds.No wind22%30.15 "Hg10 mi
9:51 PM49 °FPassing clouds.8 mph26%30.16 "Hg10 mi
8:51 PM52 °FPassing clouds.No wind24%30.17 "Hg10 mi
7:51 PM61 °FPassing clouds.5 mph18%30.15 "Hg10 mi
6:51 PM62 °FPassing clouds.6 mph14%30.15 "Hg10 mi
5:51 PM69 °FClear.3 mph10%30.14 "Hg10 mi
4:51 PM73 °FSunny.No wind9%30.11 "Hg10 mi
3:51 PM74 °FSunny.3 mph9%30.10 "Hg10 mi
2:51 PM74 °FSunny.No wind9%30.11 "Hg10 mi
1:51 PM73 °FSunny.No wind9%30.12 "Hg10 mi
12:51 PM69 °FSunny.No wind11%30.16 "Hg10 mi
11:51 AM67 °FSunny.5 mph12%30.21 "Hg10 mi
10:51 AM63 °FSunny.No wind15%30.23 "Hg10 mi
9:51 AM57 °FSunny.5 mph18%30.23 "Hg10 mi
8:51 AM50 °FSunny.5 mph27%30.24 "Hg10 mi
7:51 AM43 °FSunny.3 mph35%30.23 "Hg10 mi
6:51 AM37 °FSunny.3 mph41%30.22 "Hg10 mi
Weather by CustomWeather, © 2016

See weather overviewHow to use our weather pages